GW1475 Weather Reports


time (UTC)temp
F
wind
direction
speed
knots
gust
knots
rain 1hr
in
rain 24hr
in
rain mn
in
humidity
%
barometer
mb
20260505101527 47 181 0.0 0.0 0.00 0.00 0.00 99 1007.1
20260505100942 47 180 0.0 0.0 0.00 0.00 0.00 99 1006.7
20260505100313 47 180 0.0 0.0 0.00 0.00 0.00 99 1006.7
20260505095740 47 180 0.0 0.0 0.00 0.00 0.00 99 1006.7
20260505095146 47 181 0.0 0.0 0.00 0.00 0.00 99 1006.4
20260505094528 47 160 0.0 0.0 0.00 0.00 0.00 99 1006.4
20260505093910 48 240 0.0 0.0 0.00 0.00 0.00 99 1006.4
20260505093331 48 167 0.0 0.0 0.00 0.00 0.00 99 1006.4
20260505092734 48 168 0.0 0.0 0.00 0.00 0.00 99 1006.0
20260505092112 48 157 0.0 0.0 0.00 0.00 0.00 99 1006.0
20260505091543 48 159 0.0 0.0 0.00 0.00 0.00 99 1006.4
20260505090932 48 145 0.0 0.0 0.00 0.00 0.00 99 1006.0
20260505090330 48 156 0.0 0.0 0.00 0.00 0.00 99 1006.0
20260505085725 48 180 0.0 0.0 0.00 0.00 0.00 99 1006.0
20260505085123 48 165 0.0 0.0 0.00 0.00 0.00 99 1006.0
20260505084548 48 161 0.0 0.0 0.00 0.00 0.00 99 1006.0
20260505083930 48 160 0.0 0.0 0.00 0.00 0.00 99 1006.0
20260505082713 48 180 0.0 0.0 0.00 0.00 0.00 99 1006.0
20260505081509 49 180 0.0 0.0 0.00 0.00 0.00 99 1006.0
20260505080952 49 180 0.0 0.0 0.00 0.00 0.00 99 1006.0
20260505080308 49 180 0.0 0.0 0.00 0.00 0.00 99 1006.0
20260505075729 49 180 0.0 0.0 0.00 0.00 0.00 99 1006.0
20260505075111 49 180 0.0 0.0 0.00 0.00 0.00 99 1006.0
20260505073939 49 180 0.0 0.0 0.00 0.00 0.00 99 1006.0
20260505073351 49 180 0.0 0.0 0.00 0.00 0.00 99 1006.0
20260505072150 50 180 0.0 0.0 0.00 0.00 0.00 99 1006.0
20260505070926 50 180 0.0 0.0 0.00 0.00 0.00 99 1006.0
20260505070310 50 180 0.0 0.0 0.00 0.00 0.00 99 1005.7
20260505065739 50 180 0.0 0.0 0.00 0.00 0.00 99 1006.0
20260505064531 50 180 0.0 0.9 0.00 0.00 0.00 99 1006.0
20260505063912 50 180 0.0 0.0 0.00 0.00 0.00 99 1006.0
20260505063352 50 180 0.0 0.0 0.00 0.00 0.00 99 1006.0
20260505062752 50 180 0.0 0.0 0.00 0.00 0.00 99 1006.0
20260505062120 50 180 0.0 0.0 0.00 0.00 0.00 99 1006.0
20260505060932 51 180 0.0 0.0 0.00 0.00 0.00 99 1006.0
20260505060347 51 180 0.0 0.0 0.00 0.00 0.00 99 1006.0
20260505055730 51 180 0.0 0.0 0.00 0.00 0.00 99 1005.7
20260505055120 51 180 0.0 0.0 0.00 0.00 0.00 99 1006.0
20260505054545 51 180 0.0 0.0 0.00 0.00 0.00 99 1006.0
20260505053930 51 180 0.0 0.0 0.00 0.00 0.00 99 1005.7
20260505053309 52 180 0.0 0.0 0.00 0.00 0.00 99 1005.7
20260505051537 52 180 0.0 0.0 0.00 0.00 0.00 99 1005.7
20260505050326 52 180 0.0 0.0 0.00 0.00 0.00 99 1005.7
20260505041526 53 180 0.0 0.0 0.00 0.00 0.00 99 1005.0
20260505040919 54 180 0.0 0.0 0.00 0.00 0.00 99 1005.0
20260505035138 54 180 0.0 0.0 0.00 0.00 0.00 99 1004.7
20260505034556 54 180 0.0 0.9 0.00 0.00 0.00 99 1004.7
20260505033913 54 180 0.0 0.0 0.00 0.00 0.00 99 1004.4
20260505033320 55 180 0.0 0.0 0.00 0.00 0.00 99 1004.7
20260505032719 55 180 0.0 0.0 0.00 0.00 0.00 99 1005.0
20260505032128 55 180 0.0 0.0 0.00 0.00 0.00 99 1004.7
20260505031514 55 180 0.0 0.0 0.00 0.00 0.00 99 1004.7
20260505030941 55 180 0.0 0.0 0.00 0.00 0.00 99 1004.7
20260505030344 55 180 0.0 0.0 0.00 0.00 0.00 99 1004.7
20260505025743 56 180 0.0 0.0 0.00 0.00 0.00 99 1004.4
20260505025129 56 180 0.0 0.0 0.00 0.00 0.00 98 1004.7
20260505024538 56 180 0.0 0.0 0.00 0.00 0.00 98 1004.7
20260505022123 57 180 0.0 0.0 0.00 0.00 0.00 97 1004.4
20260505021512 57 180 0.0 0.0 0.00 0.00 0.00 96 1004.7
20260505020926 57 181 0.0 0.0 0.00 0.00 0.00 96 1004.7
20260505020317 58 179 0.0 0.0 0.00 0.00 0.00 95 1004.4
20260505015154 58 178 0.0 0.0 0.00 0.00 0.00 94 1004.7
20260505014530 59 178 0.0 0.0 0.00 0.00 0.00 93 1004.4
20260505013918 59 178 0.0 0.0 0.00 0.00 0.00 93 1004.4
20260505013318 60 179 0.0 0.0 0.00 0.00 0.00 92 1004.4
20260505012711 60 178 0.0 0.0 0.00 0.00 0.00 91 1004.4
20260505012147 60 178 0.0 0.0 0.00 0.00 0.00 90 1004.0
20260505011536 61 170 0.0 0.0 0.00 0.00 0.00 89 1004.4
20260505010914 61 169 0.0 0.0 0.00 0.00 0.00 89 1004.4
20260505010331 62 162 0.0 0.0 0.00 0.00 0.00 87 1004.4
20260505005751 62 162 0.0 0.0 0.00 0.00 0.00 87 1004.4
20260505005121 63 163 0.0 0.9 0.00 0.00 0.00 86 1004.0
20260505004534 63 160 0.0 0.0 0.00 0.00 0.00 85 1004.0
20260505003929 64 161 0.0 0.0 0.00 0.00 0.00 84 1004.0
20260505003354 64 139 0.9 0.9 0.00 0.00 0.00 82 1004.0
20260505002111 66 197 0.0 0.0 0.00 0.00 0.00 79 1004.0
20260505001513 66 197 0.0 0.0 0.00 0.00 0.00 77 1004.0
20260505000916 67 198 0.0 0.0 0.00 0.00 0.00 76 1004.0
20260505000318 68 184 0.0 0.0 0.00 0.00 0.00 74 1004.0
20260504235715 68 182 0.0 0.0 0.00 0.00 0.00 73 1004.0
20260504234528 70 159 0.0 0.0 0.00 0.00 0.00 70 1004.0
20260504233933 71 160 0.0 0.9 0.00 0.00 0.00 65 1004.0
20260504233341 72 155 0.9 0.9 0.00 0.00 0.00 59 1003.7
20260504232715 74 169 0.0 0.0 0.00 0.00 0.00 59 1003.7
20260504232153 76 160 0.9 1.7 0.00 0.00 0.00 54 1004.0
20260504231519 76 115 3.5 3.5 0.00 0.00 0.00 50 1004.0
20260504230952 77 84 1.7 2.6 0.00 0.00 0.00 50 1004.0
20260504225715 78 79 0.9 0.9 0.00 0.00 0.00 49 1003.7
20260504225147 77 123 4.3 5.2 0.00 0.00 0.00 48 1004.0
20260504224511 77 157 3.5 3.5 0.00 0.00 0.00 48 1004.0
20260504223935 77 109 3.5 3.5 0.00 0.00 0.00 48 1004.0
20260504223316 77 137 4.3 6.1 0.00 0.00 0.00 48 1004.0
20260504222753 78 84 2.6 2.6 0.00 0.00 0.00 48 1004.0
20260504222112 79 112 8.7 10.4 0.00 0.00 0.00 47 1004.4
20260504221522 78 73 5.2 7.8 0.00 0.00 0.00 47 1004.4
20260504220927 78 96 6.1 7.8 0.00 0.00 0.00 47 1004.4
20260504220316 79 130 7.0 7.8 0.00 0.00 0.00 47 1004.0
20260504215123 78 107 3.5 5.2 0.00 0.00 0.00 47 1004.4
20260504214552 78 99 8.7 12.2 0.00 0.00 0.00 47 1004.4
20260504213951 78 145 10.4 12.2 0.00 0.00 0.00 47 1004.0
20260504211528 78 135 6.1 7.8 0.00 0.00 0.00 47 1004.4
20260504210950 78 64 7.8 8.7 0.00 0.00 0.00 47 1004.4
20260504210330 78 115 2.6 5.2 0.00 0.00 0.00 49 1004.4
20260504205734 79 163 1.7 2.6 0.00 0.00 0.00 50 1004.4
20260504205140 78 135 7.8 8.7 0.00 0.00 0.00 49 1004.4
20260504204542 77 86 4.3 7.8 0.00 0.00 0.00 50 1004.4
20260504203932 77 163 10.4 17.4 0.00 0.00 0.00 50 1004.4
20260504202734 77 118 8.7 8.7 0.00 0.00 0.00 51 1004.4
20260504202114 78 100 6.1 7.8 0.00 0.00 0.00 51 1004.7
20260504201541 77 333 5.2 7.0 0.00 0.00 0.00 52 1004.7
20260504200320 78 102 4.3 6.1 0.00 0.00 0.00 54 1004.7
20260504195752 76 236 0.9 2.6 0.00 0.00 0.00 54 1005.0
20260504195125 76 137 0.9 1.7 0.00 0.00 0.00 57 1005.0
20260504194552 75 339 1.7 1.7 0.00 0.00 0.00 57 1005.4
20260504193936 75 206 1.7 2.6 0.00 0.00 0.00 58 1005.4
20260504193338 74 246 0.9 1.7 0.00 0.00 0.00 60 1005.4
20260504192722 73 236 1.7 2.6 0.00 0.00 0.00 60 1005.7
20260504192139 73 52 1.7 1.7 0.00 0.00 0.00 59 1006.0
20260504191533 73 225 0.9 0.9 0.00 0.00 0.00 61 1006.0
20260504190949 71 329 1.7 1.7 0.00 0.00 0.00 61 1006.0
20260504185733 71 156 0.0 0.0 0.00 0.00 0.00 61 1006.4
20260504184535 68 136 1.7 1.7 0.00 0.00 0.00 64 1006.4
20260504183943 68 159 0.9 0.9 0.00 0.00 0.00 67 1006.7
20260504183329 68 82 3.5 6.1 0.00 0.00 0.00 64 1006.4
20260504182741 68 153 0.0 0.0 0.00 0.00 0.00 63 1007.1
20260504182142 68 120 4.3 5.2 0.00 0.00 0.00 62 1006.4
20260504181512 68 139 1.7 1.7 0.00 0.00 0.00 62 1006.4
20260504180923 68 113 4.3 6.1 0.00 0.00 0.00 61 1006.4
20260504180320 69 132 1.7 2.6 0.00 0.00 0.00 60 1006.0
20260504175748 69 72 3.5 5.2 0.00 0.00 0.00 59 1006.0
20260504174534 69 52 1.7 1.7 0.00 0.00 0.00 60 1006.4
20260504173931 70 79 3.5 5.2 0.00 0.00 0.00 59 1006.7
20260504172713 70 197 3.5 3.5 0.00 0.00 0.00 60 1006.4
20260504172134 70 107 5.2 7.0 0.00 0.00 0.00 60 1006.4
20260504171554 69 313 4.3 5.2 0.00 0.00 0.00 61 1006.4
20260504170919 69 112 1.7 2.6 0.00 0.00 0.00 62 1006.7
20260504170335 70 86 4.3 6.1 0.00 0.00 0.00 61 1006.7
20260504160347 63 71 0.9 0.9 0.00 0.00 0.00 76 1007.7
20260504141236 58 134 2.6 2.6 0.00 0.00 0.00 78 1009.8
20260504140653 57 93 2.6 2.6 0.00 0.00 0.00 79 1009.8
20260504130633 55 153 1.7 2.6 0.00 0.00 0.00 78 1009.1
20260504110627 42 182 0.0 0.0 0.00 0.00 0.00 99 1008.8